{"data":{"norad_id":48951,"epoch":"2026-09-19T19:07:31.287360Z","epoch_age_seconds":71838,"freshness":"FRESH","line1":"1 48951U 21059CA  26262.79688990  .00017504  00000+0  23106-3 0  9999","line2":"2 48951  97.6965 103.6600 0006291  10.6352 349.5035 15.58434612292025","mean_motion":15.58434612,"eccentricity":0.0006291,"inclination_deg":97.6965,"raan_deg":103.66,"arg_perigee_deg":10.6352,"mean_anomaly_deg":349.5035,"bstar":0.00023106,"rev_number":29202,"period_min":92.400411856356,"perigee_km":387.92776617361,"apogee_km":396.44618780146,"semimajor_km":6770.3239769875,"source":"CELESTRAK","updated_at":"2026-09-20T09:00:15.224012Z"}}